This is the latest recevied weather packets stored in our database for station/object KC0AFB. If no packets are shown the sender has not sent any weather packets the latest 10 day(s).
| Time | Temp. | Humidity | Pressure | Rain* | Wind** | Luminosity | Snow |
|---|---|---|---|---|---|---|---|
| 1777460907 | -1.11° C | 71% | 1018.3 hPa | 0 mm | - | 0 W/m² | - |
| 1777460603 | -1.67° C | 71% | 1018.1 hPa | 0 mm | - | 0 W/m² | - |
| 1777460299 | -1.11° C | 71% | 1018.2 hPa | 0 mm | - | 0 W/m² | - |
| 1777459996 | -1.11° C | 69% | 1018.1 hPa | 0 mm | - | 0 W/m² | - |
| 1777459692 | -0.56° C | 69% | 1018.1 hPa | 0 mm | - | 0 W/m² | - |
| 1777459389 | -0.56° C | 67% | 1018.2 hPa | 0 mm | - | 0 W/m² | - |
| 1777459088 | 0° C | 67% | 1018.1 hPa | 0 mm | - | 0 W/m² | - |
| 1777458785 | 0° C | 68% | 1018.2 hPa | 0 mm | - | 0 W/m² | - |
| 1777458481 | -0.56° C | 68% | 1018.3 hPa | 0 mm | - | 0 W/m² | - |
| 1777458178 | -0.56° C | 68% | 1018.5 hPa | 0 mm | - | 0 W/m² | - |
| 1777457878 | -0.56° C | 69% | 1018.6 hPa | 0 mm | - | 0 W/m² | - |
| 1777457574 | -1.11° C | 70% | 1018.3 hPa | 0 mm | - | 0 W/m² | - |
| 1777457269 | -1.11° C | 69% | 1018.6 hPa | 0 mm | - | 0 W/m² | - |
| 1777456966 | -1.11° C | 68% | 1018.3 hPa | 0 mm | - | 0 W/m² | - |
| 1777456661 | -1.11° C | 69% | 1018.6 hPa | 0 mm | - | 0 W/m² | - |
| 1777456356 | -1.11° C | 69% | 1018.7 hPa | 0 mm | - | 0 W/m² | - |
| 1777456053 | -1.67° C | 69% | 1018.2 hPa | 0 mm | - | 0 W/m² | - |
| 1777455749 | -1.11° C | 68% | 1018.5 hPa | 0 mm | - | 0 W/m² | - |
| 1777455446 | -0.56° C | 66% | 1018.6 hPa | 0 mm | - | 0 W/m² | - |
| 1777455142 | 0° C | 65% | 1018.3 hPa | 0 mm | - | 0 W/m² | - |
| 1777454839 | -0.56° C | 66% | 1018.5 hPa | 0 mm | - | 0 W/m² | - |
| 1777454535 | 0° C | 65% | 1018.1 hPa | 0 mm | - | 0 W/m² | - |
| 1777454231 | -0.56° C | 66% | 1018.2 hPa | 0 mm | - | 0 W/m² | - |
| 1777453929 | -0.56° C | 65% | 1018.1 hPa | 0 mm | - | 0 W/m² | - |
| 1777453625 | 0° C | 65% | 1018.2 hPa | 0 mm | - | 0 W/m² | - |
* Rain latest hour (hover to see other rain measurements)
** Current wind speed in m/s (hover to see current wind gust speed)